WD6FGE Weather Reports


Display with metric or nautical units.
time (UTC)temp
F
wind
direction
speed
MPH
gust
MPH
rain 1hr
in
rain 24hr
in
rain mn
in
humidity
%
barometer
mb
20190117134510 43 198 11.0 24.0 0.00 1.31 0.05 83 1005.1
20190117133449 43 149 11.0 24.0 0.00 1.32 0.05 84 1004.7
20190117132509 43 141 8.0 20.0 0.00 1.31 0.04 85 1004.4
20190117131451 43 174 9.0 20.0 0.00 1.31 0.04 84 1003.9
20190117130417 43 175 8.0 19.0 0.00 1.31 0.04 82 1003.8
20190117125350 42 189 8.0 19.0 0.00 1.31 0.04 87 1003.5
20190117124320 42 156 13.0 27.0 0.00 1.30 0.03 86 1003.7
20190117123331 42 127 16.0 27.0 0.00 1.31 0.03 85 1003.5
20190117122258 43 148 13.0 25.0 0.00 1.31 0.03 82 1002.8
20190117121240 45 184 11.0 25.0 0.00 1.31 0.03 79 1002.4
20190117120216 45 159 15.0 25.0 0.00 1.31 0.03 77 1002.2
20190117115212 45 107 11.0 23.0 0.00 1.32 0.03 77 1002.6
20190117114213 45 205 11.0 24.0 0.00 1.32 0.03 77 1002.7
20190117113221 45 163 9.0 24.0 0.00 1.33 0.03 78 1002.8
20190117112216 44 168 8.0 18.0 0.00 1.33 0.03 83 1003.0
20190117111157 45 182 6.0 15.0 0.00 1.34 0.03 81 1003.1
20190117110155 46 142 7.0 23.0 0.00 1.33 0.02 77 1003.2
20190117105148 46 162 10.0 23.0 0.00 1.33 0.02 76 1003.1
20190117104128 46 182 7.0 18.0 0.00 1.34 0.02 79 1003.0
20190117103134 46 171 9.0 18.0 0.00 1.34 0.02 79 1002.7
20190117102104 46 201 9.0 32.0 0.00 1.35 0.02 81 1002.4
20190117101034 46 182 12.0 32.0 0.00 1.36 0.02 81 1002.0
20190117100039 46 169 11.0 27.0 0.00 1.37 0.02 81 1001.9
20190117095007 46 199 6.0 21.0 0.00 1.36 0.01 84 1001.8
20190117093942 47 161 9.0 19.0 0.00 1.37 0.01 84 1001.8
20190117092919 47 165 9.0 22.0 0.00 1.37 0.00 83 1001.4
20190117091922 47 205 9.0 26.0 0.00 1.37 0.00 83 1000.7
20190117090849 47 211 11.0 26.0 0.00 1.37 0.00 85 1000.7
20190117085857 47 219 9.0 20.0 0.00 1.38 0.00 86 1000.8
20190117084906 47 197 11.0 23.0 0.00 1.38 0.00 87 1001.3
20190117083902 46 194 10.0 23.0 0.00 1.39 0.00 89 1001.2
20190117082827 46 167 6.0 20.0 0.00 1.39 0.00 93 1001.2
20190117081755 46 222 6.0 16.0 0.00 1.40 0.00 92 1001.3
20190117080737 43 211 2.0 9.0 0.00 1.42 0.00 93 1001.7
20190117075726 44 262 0.0 2.0 0.00 1.42 1.43 92 1002.0
20190117074714 44 139 0.0 3.0 0.00 1.43 1.42 93 1001.9
20190117073728 44 131 2.0 7.0 0.00 1.45 1.42 92 1002.3
20190117072747 44 146 4.0 9.0 0.00 1.45 1.42 92 1002.4
20190117071727 44 153 4.0 9.0 0.00 1.44 1.40 93 1002.5
20190117070752 44 151 1.0 8.0 0.00 1.45 1.40 92 1002.4
20190117065733 44 147 1.0 8.0 0.06 1.48 1.40 93 1002.2
20190117064723 45 215 4.0 16.0 0.13 1.49 1.40 93 1002.4
20190117063720 44 134 3.0 16.0 0.31 1.48 1.38 92 1004.2
20190117062729 44 78 1.0 5.0 0.21 1.47 1.35 93 1003.7
20190117061722 43 23 1.0 5.0 0.09 1.44 1.32 93 1003.2
20190117060653 43 26 2.0 6.0 0.04 1.45 1.30 93 1003.2
20190117055716 43 5 3.0 8.0 0.05 1.44 1.29 92 1002.9
20190117054739 44 5 3.0 8.0 0.05 1.45 1.29 92 1003.6
20190117053738 44 23 1.0 6.0 0.04 1.46 1.28 93 1003.8
20190117051711 44 5 0.0 3.0 0.09 1.48 1.26 92 1003.8
20190117050732 45 235 0.0 10.0 0.17 1.49 1.25 93 1003.9
20190117045740 45 209 4.0 19.0 0.21 1.47 1.22 92 1004.3
20190117044726 46 208 8.0 19.0 0.18 1.44 1.19 93 1004.2
20190117043724 47 237 5.0 16.0 0.21 1.40 1.15 92 1004.0
20190117042725 46 302 4.0 16.0 0.37 1.37 1.10 92 1003.6
20190117041711 45 106 1.0 7.0 0.32 1.32 1.05 92 1003.9
20190117040712 44 278 1.0 7.0 0.18 1.26 1.01 92 1003.6
20190117035650 44 308 1.0 2.0 0.40 1.24 0.97 92 1003.7
20190117034701 43 5 2.0 6.0 0.15 1.19 0.93 93 1003.4
20190117033645 44 0 2.0 6.0 0.16 1.18 0.91 92 1003.4
20190117032636 43 344 2.0 7.0 0.19 1.13 0.87 92 1003.5
20190117031618 43 282 4.0 12.0 0.06 1.11 0.84 92 1003.4
20190117030638 43 312 4.0 12.0 0.21 1.10 0.83 92 1003.6
20190117025632 43 333 3.0 9.0 0.04 1.06 0.80 92 1003.8
20190117024608 43 340 2.0 6.0 0.06 1.07 0.79 92 1003.5
20190117023550 43 346 2.0 18.0 0.20 1.06 0.79 92 1003.7
20190117022611 43 28 7.0 18.0 0.00 1.05 0.77 92 1003.7
20190117021629 43 12 5.0 16.0 0.00 1.05 0.77 92 1003.7
20190117020622 43 334 4.0 11.0 0.00 1.04 0.76 92 1004.4
20190117015610 43 13 4.0 9.0 0.00 1.04 0.76 92 1004.6
20190117014624 43 298 3.0 9.0 0.00 1.02 0.75 92 1005.1
20190117013624 43 325 3.0 7.0 0.00 1.02 0.75 92 1005.2
20190117012551 43 334 2.0 7.0 0.06 1.02 0.75 92 1005.6
20190117011554 43 333 3.0 7.0 0.10 1.01 0.75 92 1006.2
20190117010540 43 355 2.0 9.0 0.12 1.00 0.73 92 1006.5
20190117005546 44 0 3.0 9.0 0.06 0.99 0.71 92 1006.5
20190117004556 44 49 2.0 9.0 0.10 0.98 0.70 92 1006.9
20190117003539 44 336 2.0 7.0 0.06 0.95 0.68 92 1007.1
20190117002534 44 315 2.0 7.0 0.08 0.94 0.67 92 1007.3
20190117001549 44 331 1.0 4.0 0.09 0.94 0.66 92 1007.7
20190117000535 44 319 1.0 4.0 0.09 0.92 0.64 92 1008.0
20190116235502 44 333 0.0 3.0 0.09 0.91 0.63 92 1008.4
20190116234507 45 355 0.0 2.0 0.10 0.89 0.61 92 1008.4
20190116233456 45 355 0.0 2.0 0.08 0.87 0.59 92 1008.4
20190116232515 45 42 0.0 0.0 0.06 0.86 0.57 92 1008.6
20190116231538 45 42 0.0 1.0 0.04 0.84 0.57 92 1008.8
20190116230538 45 133 0.0 0.0 0.06 0.84 0.55 92 1008.6
20190116225518 45 133 0.0 1.0 0.00 0.83 0.55 92 1008.6
20190116224541 45 133 0.0 1.0 0.00 0.81 0.54 92 1008.5
20190116223507 45 133 0.0 3.0 0.00 0.82 0.54 92 1008.4
20190116222457 45 13 0.0 2.0 0.00 0.82 0.52 92 1008.6
20190116221453 45 13 0.0 3.0 0.00 0.82 0.52 92 1008.5
20190116220502 45 207 1.0 4.0 0.00 0.82 0.52 92 1008.7
20190116215442 45 287 1.0 4.0 0.00 0.82 0.52 92 1008.5
20190116214442 45 113 0.0 3.0 0.00 0.81 0.52 92 1008.7
20190116213410 46 18 1.0 5.0 0.00 0.80 0.52 92 1008.8
20190116212354 45 223 0.0 3.0 0.00 0.80 0.51 92 1008.7
20190116211320 45 259 0.0 2.0 0.00 0.80 0.51 92 1009.0
20190116210249 44 222 0.0 1.0 0.00 0.78 0.50 92 1009.3
20190116205241 44 185 1.0 3.0 0.00 0.78 0.50 92 1009.5
20190116204253 44 47 0.0 3.0 0.05 0.78 0.50 92 1009.6
20190116203224 43 243 0.0 1.0 0.05 0.78 0.50 92 1009.9
20190116202240 43 243 0.0 1.0 0.06 0.78 0.49 92 1010.5
20190116201206 43 242 0.0 2.0 0.05 0.77 0.48 92 1010.8
20190116200204 43 244 0.0 2.0 0.00 0.75 0.47 92 1010.8
20190116195226 43 242 0.0 2.0 0.00 0.75 0.46 92 1010.8
20190116194152 43 34 0.0 2.0 0.00 0.75 0.46 92 1011.1
20190116193200 43 27 0.0 2.0 0.00 0.74 0.45 92 1011.2
20190116192134 43 163 0.0 4.0 0.00 0.74 0.45 92 1011.7
20190116191154 42 194 2.0 4.0 0.00 0.74 0.45 92 1011.8
20190116190218 41 158 0.0 3.0 0.00 0.74 0.45 92 1012.2
20190116185210 41 230 0.0 1.0 0.05 0.72 0.43 92 1012.1
20190116184142 41 290 0.0 0.0 0.06 0.72 0.43 92 1012.2
20190116183129 41 290 0.0 2.0 0.06 0.72 0.43 92 1012.3
20190116182112 40 290 0.0 0.0 0.06 0.69 0.40 92 1012.3
20190116181037 40 288 0.0 1.0 0.16 0.69 0.40 92 1011.8
20190116180100 40 288 0.0 2.0 0.08 0.67 0.38 92 1012.3
20190116175054 40 292 0.0 0.0 0.04 0.65 0.36 92 1012.2
20190116174039 39 5 0.0 3.0 0.04 0.64 0.35 92 1012.2
20190116173032 39 327 0.0 3.0 0.04 0.64 0.35 92 1012.0
20190116172049 39 331 0.0 2.0 0.04 0.62 0.34 92 1012.1
20190116171026 38 19 0.0 0.0 0.06 0.62 0.33 92 1012.2
20190116170007 38 321 0.0 2.0 0.00 0.61 0.32 92 1011.9
20190116165000 38 302 0.0 1.0 0.00 0.60 0.31 92 1012.0
20190116163956 37 302 0.0 0.0 0.00 0.60 0.31 92 1012.0
20190116162932 37 302 0.0 0.0 0.00 0.59 0.30 92 1012.0
20190116161924 37 302 0.0 1.0 0.00 0.59 0.30 92 1012.0
20190116160928 37 302 0.0 1.0 0.00 0.58 0.28 92 1011.9
20190116155944 36 302 0.0 2.0 0.05 0.58 0.28 92 1011.8
20190116154913 36 137 0.0 0.0 0.05 0.57 0.28 92 1011.9
20190116153922 36 136 0.0 0.0 0.05 0.57 0.27 92 1012.1
20190116152934 36 175 0.0 0.0 0.04 0.55 0.27 92 1012.0
20190116151936 36 175 0.0 1.0 0.06 0.55 0.26 92 1011.9
20190116150940 36 180 0.0 0.0 0.09 0.54 0.25 92 1011.7
20190116145953 36 180 0.0 0.0 0.10 0.53 0.24 92 1011.6
20190116145006 36 180 0.0 0.0 0.04 0.50 0.21 92 1011.6
20190116143954 36 163 1.0 2.0 0.04 0.50 0.21 92 1011.4
20190116143017 36 189 0.0 2.0 0.08 0.50 0.21 92 1011.1
20190116142024 36 279 0.0 0.0 0.09 0.49 0.20 92 1011.0
20190116141014 36 222 0.0 2.0 0.06 0.47 0.19 92 1011.0
20190116140018 36 117 0.0 4.0 0.04 0.46 0.17 92 1011.1
20190116135036 36 121 0.0 4.0 0.00 0.45 0.16 92 1011.0